Lapse_Rate
1.2 1.2 1.5 1.4 1.1 0.9 0.3 -0.2 1.1 1.5 2.8 3.6 4.2 6.1 6.0 5.9 4.9 4.7 4.7 5.5 5.8 5.5
1.7 1.9 2.4 1.6 0.6 -0.1 0.0 0.9 1.4 2.4 4.1 5.2 5.6 5.2 5.1 4.8 5.1 6.6 6.4 5.3 4.9 4.7
2.3 2.1 2.1 1.4 1.0 0.8 1.5 3.0 4.1 4.6 4.8 5.2 5.4 5.3 5.3 5.3 5.6 5.6 5.1 5.4 4.9 5.0
2.5 2.6 2.6 2.0 1.7 2.0 3.9 5.2 5.1 5.5 5.6 4.9 5.4 5.8 5.7 5.4 5.3 5.5 5.4 5.3 5.4 5.5
2.4 2.6 2.9 2.9 3.1 3.7 4.6 6.0 5.7 5.5 5.7 5.7 5.9 5.8 5.6 5.4 5.5 5.3 5.2 5.3 5.3 5.5
2.4 3.0 3.3 3.9 4.6 5.4 6.0 6.4 6.2 6.5 5.9 5.8 5.7 5.4 5.0 5.0 5.1 5.0 5.1 5.1 5.1 5.3
3.2 3.5 3.9 4.6 5.1 5.4 6.2 6.4 6.5 5.5 5.2 5.0 4.8 4.9 4.9 4.9 4.3 3.8 4.3 4.4 4.6 4.4
4.8 5.0 4.8 5.3 5.6 6.1 7.0 7.1 5.4 4.5 4.1 4.0 4.5 5.6 5.0 4.5 4.7 4.8 4.8 4.7 4.8 5.1
6.6 6.9 6.8 6.6 6.5 6.1 6.2 5.8 5.7 4.7 4.0 3.7 4.9 5.7 6.5 6.6 5.3 5.2 5.3 5.1 5.4 5.4
6.4 6.6 6.6 6.9 6.4 5.6 5.3 4.7 4.1 4.1 3.8 3.6 3.9 6.0 7.0 7.0 5.7 5.5 5.4 5.3 5.5 6.3
6.6 6.6 6.0 5.3 4.6 4.3 4.3 4.1 3.8 3.7 3.6 3.8 4.9 6.5 7.0 7.0 5.5 4.7 5.2 5.9 6.4 6.5
6.5 5.4 4.7 4.7 4.2 4.1 3.9 4.1 4.0 4.1 4.3 4.6 4.7 6.2 6.5 6.4 4.0 4.8 5.1 6.1 6.3 6.3
5.0 5.0 4.5 4.1 4.0 4.4 4.0 4.1 4.0 4.3 4.7 5.0 4.0 5.2 6.7 6.9 5.9 6.8 6.6 6.4 6.4 6.6
4.9 4.7 4.1 3.9 4.2 3.7 3.4 3.2 1.4 1.2 2.2 3.5 4.7 4.4 6.6 7.3 7.7 6.8 6.4 6.3 6.4 6.6
Wind_Speed
8 5 5 5 5 3 3 4 7 9 9 7 6 5 4 2 2 3 5 7 5 5
7 8 6 4 2 3 7 6 6 6 6 4 3 2 3 3 6 5 6 5 5 4
8 7 5 1 6 6 5 4 4 4 4 4 4 7 5 5 3 4 4 4 5 4
7 5 2 4 5 5 4 2 2 2 3 4 5 6 4 5 5 5 5 4 5 6
7 5 4 4 4 4 4 2 2 1 2 3 5 5 5 6 5 6 6 6 6 7
6 3 3 2 2 1 1 2 3 3 5 5 5 4 5 5 5 5 5 5 5 6
4 4 2 1 5 6 5 6 6 5 5 4 4 4 4 4 3 3 4 5 5 6
3 4 5 4 5 8 7 5 5 5 5 5 5 4 3 1 3 5 6 7 7 8
5 6 7 7 7 6 7 5 3 5 5 6 4 7 5 4 4 6 8 9 10 9
4 3 3 5 5 4 2 4 5 5 5 5 5 10 10 13 6 7 9 10 10 10
3 1 2 3 4 5 3 4 4 5 5 4 5 12 15 17 9 7 9 10 11 11
6 6 5 5 5 3 3 3 3 3 4 5 7 15 17 15 5 7 9 10 11 11
5 5 5 4 5 3 2 3 2 4 5 9 7 14 18 15 6 8 8 11 12 18
5 5 4 4 3 4 4 3 4 5 6 7 9 9 18 19 8 6 8 9 10 9
Wind_Direction
314 301 293 289 289 295 107 84 80 77 78 88 74 10 335 335 264 291 270 267 252 247
310 298 284 281 100 112 108 118 110 115 100 75 99 351 290 269 261 239 245 241 251 244
287 292 273 189 130 120 111 125 141 128 87 32 270 251 241 246 259 269 273 257 258 261
273 279 258 138 122 129 133 157 234 113 142 207 232 249 264 269 267 252 268 269 269 268
282 239 209 167 141 144 146 119 244 252 237 255 258 267 270 276 283 279 276 270 269 270
279 223 184 158 126 185 9 322 298 298 271 281 294 296 287 272 279 281 279 284 288 287
262 176 162 57 31 8 328 300 300 299 310 320 314 306 306 306 311 327 314 294 276 270
9 62 72 40 348 350 316 305 333 338 341 338 332 310 298 304 298 290 283 274 268 267
42 13 343 321 289 304 314 326 326 343 325 316 307 310 272 296 282 277 284 286 284 273
301 314 303 284 272 265 294 328 339 320 318 322 327 322 321 315 295 286 286 283 283 283
77 107 263 312 351 344 339 323 316 316 332 337 322 321 314 308 298 284 281 279 279 276
333 345 7 354 328 316 319 324 313 316 340 322 305 316 315 314 290 286 281 282 282 282
358 353 343 331 330 307 308 311 3 329 319 315 307 311 316 317 296 291 299 298 294 287
349 337 356 329 330 332 342 348 330 322 308 301 301 302 313 315 308 299 296 294 295 291